When you browse on this site, cookies collect data to enhance your experience and personalize the content and advertising you see.
Visit our Privacy Policy to learn more. By continuing to use the site, you agree to this use of cookies and data.
  • In Belgium
  • List of Countries
  • For 7 days
  • Water Temperature
  • Satellite Maps
  • Weather Map
  • Weather Widgets
  • user-avatar
    Login

    Hourly Weather Kopylova

    Today, 14 December, Friday

    Time Temperature Precipitation Wind Pressure Humidity
    00:00 -10°C° 0 mm 1 mps 766 mmHg 91%
    01:00 -10°C° 0 mm 1 mps 766 mmHg 91%
    02:00 -10°C° 0 mm 1 mps 766 mmHg 91%
    03:00 -10°C° 0 mm 1 mps 766 mmHg 90%
    04:00 -10°C° 0 mm 1 mps 766 mmHg 90%
    05:00 -10°C° 0 mm 1 mps 766 mmHg 90%
    06:00 -10°C° 0 mm 1 mps 766 mmHg 90%
    07:00 -12°C° 0 mm 2 mps 765 mmHg 90%
    08:00 -12°C° 0 mm 2 mps 765 mmHg 90%
    09:00 -12°C° 0 mm 2 mps 765 mmHg 90%
    10:00 -9°C° 0 mm 1 mps 765 mmHg 89%
    11:00 -9°C° 0 mm 1 mps 765 mmHg 88%
    12:00 -8°C° 0 mm 1 mps 764 mmHg 87%
    13:00 -8°C° 0 mm 2 mps 764 mmHg 85%
    14:00 -9°C° 0 mm 2 mps 764 mmHg 86%
    15:00 -9°C° 0 mm 2 mps 764 mmHg 87%
    16:00 -10°C° 0 mm 2 mps 764 mmHg 87%
    17:00 -10°C° 0 mm 2 mps 764 mmHg 88%
    18:00 -12°C° 0 mm 2 mps 764 mmHg 88%
    19:00 -12°C° 0 mm 2 mps 763 mmHg 88%
    20:00 -12°C° 0 mm 2 mps 763 mmHg 88%
    21:00 -12°C° 0 mm 2 mps 763 mmHg 88%
    22:00 -12°C° 0 mm 2 mps 762 mmHg 88%
    23:00 -12°C° 0 mm 2 mps 762 mmHg 88%

    Tomorrow, 15 December, Saturday

    Time Temperature Precipitation Wind Pressure Humidity
    00:00 -12°C° 0 mm 2 mps 762 mmHg 88%
    01:00 -12°C° 0 mm 2 mps 762 mmHg 87%
    02:00 -12°C° 0 mm 2 mps 761 mmHg 87%
    03:00 -12°C° 0 mm 2 mps 761 mmHg 86%
    04:00 -12°C° 0 mm 2 mps 761 mmHg 86%
    05:00 -12°C° 0 mm 2 mps 761 mmHg 85%
    06:00 -12°C° 0 mm 2 mps 760 mmHg 85%
    07:00 -12°C° 0 mm 2 mps 760 mmHg 84%
    08:00 -12°C° 0 mm 2 mps 760 mmHg 84%
    09:00 -10°C° 0 mm 2 mps 760 mmHg 83%
    10:00 -9°C° 0 mm 1 mps 760 mmHg 83%
    11:00 -8°C° 0 mm 1 mps 760 mmHg 84%
    12:00 -7°C° 0 mm 1 mps 760 mmHg 85%
    13:00 -6°C° 0 mm 1 mps 760 mmHg 85%
    14:00 -6°C° 0 mm 1 mps 761 mmHg 88%
    15:00 -6°C° 0 mm 1 mps 761 mmHg 91%
    16:00 -6°C° 0 mm 1 mps 761 mmHg 93%
    17:00 -6°C° 0 mm 1 mps 761 mmHg 93%
    18:00 -7°C° 0 mm 1 mps 761 mmHg 93%
    19:00 -8°C° 0 mm 1 mps 762 mmHg 94%
    20:00 -8°C° 0 mm 1 mps 762 mmHg 94%
    21:00 -9°C° 0 mm 1 mps 762 mmHg 93%
    22:00 -9°C° 0 mm 1 mps 762 mmHg 93%
    23:00 -10°C° 0 mm 1 mps 762 mmHg 94%

    Day after tomorrow, 16 December, Sunday

    Time Temperature Precipitation Wind Pressure Humidity
    00:00 -10°C° 0 mm 1 mps 762 mmHg 94%
    01:00 -10°C° 0 mm 1 mps 762 mmHg 94%
    02:00 -10°C° 0 mm 1 mps 762 mmHg 94%
    03:00 -10°C° 0 mm 1 mps 763 mmHg 94%
    04:00 -11°C° 0 mm 1 mps 763 mmHg 94%
    05:00 -11°C° 0 mm 1 mps 763 mmHg 93%
    06:00 -11°C° 0 mm 1 mps 763 mmHg 93%
    07:00 -11°C° 0 mm 1 mps 763 mmHg 93%
    08:00 -10°C° 0 mm 1 mps 763 mmHg 93%
    09:00 -10°C° 0 mm 1 mps 763 mmHg 92%
    10:00 -10°C° 0 mm 1 mps 764 mmHg 92%
    11:00 -9°C° 0 mm 1 mps 764 mmHg 91%
    12:00 -8°C° 0 mm 1 mps 764 mmHg 91%
    13:00 -7°C° 0 mm 1 mps 764 mmHg 90%
    14:00 -8°C° 0 mm 1 mps 764 mmHg 90%
    15:00 -8°C° 0 mm 1 mps 764 mmHg 90%
    16:00 -9°C° 0 mm 1 mps 764 mmHg 91%
    17:00 -9°C° 0 mm 1 mps 764 mmHg 91%
    18:00 -9°C° 0 mm 1 mps 765 mmHg 91%
    19:00 -9°C° 0 mm 1 mps 765 mmHg 91%
    20:00 -9°C° 0 mm 1 mps 765 mmHg 91%
    21:00 -9°C° 0 mm 1 mps 765 mmHg 91%
    22:00 -9°C° 0 mm 1 mps 765 mmHg 91%
    23:00 -9°C° 0 mm 1 mps 765 mmHg 91%

    17 December, Monday

    Time Temperature Precipitation Wind Pressure Humidity
    00:00 -9°C° 0 mm 1 mps 765 mmHg 91%
    01:00 -9°C° 0 mm 1 mps 765 mmHg 91%
    02:00 -8°C° 0 mm 1 mps 765 mmHg 91%
    03:00 -8°C° 0 mm 1 mps 766 mmHg 91%
    04:00 -8°C° 0 mm 1 mps 766 mmHg 91%
    05:00 -8°C° 0 mm 1 mps 766 mmHg 91%
    06:00 -8°C° 0 mm 1 mps 766 mmHg 91%
    07:00 -8°C° 0 mm 1 mps 766 mmHg 91%
    08:00 -8°C° 0 mm 1 mps 766 mmHg 92%
    09:00 -8°C° 0 mm 1 mps 766 mmHg 92%
    10:00 -8°C° 0 mm 1 mps 766 mmHg 92%
    11:00 -7°C° 0 mm 1 mps 766 mmHg 92%
    12:00 -7°C° 0 mm 1 mps 766 mmHg 92%
    13:00 -6°C° 0 mm 1 mps 766 mmHg 92%
    14:00 -7°C° 0 mm 1 mps 766 mmHg 92%
    15:00 -7°C° 0 mm 1 mps 766 mmHg 92%
    16:00 -8°C° 0 mm 1 mps 766 mmHg 92%
    17:00 -8°C° 0 mm 1 mps 766 mmHg 92%
    18:00 -9°C° 0 mm 2 mps 766 mmHg 92%
    19:00 -9°C° 0 mm 2 mps 766 mmHg 92%
    20:00 -9°C° 0 mm 2 mps 766 mmHg 92%
    21:00 -9°C° 0 mm 2 mps 765 mmHg 92%
    22:00 -9°C° 0 mm 2 mps 765 mmHg 92%
    23:00 -9°C° 0 mm 2 mps 765 mmHg 92%

    18 December, Tuesday

    Time Temperature Precipitation Wind Pressure Humidity
    00:00 -9°C° 0 mm 2 mps 765 mmHg 92%
    01:00 -9°C° 0 mm 2 mps 765 mmHg 92%
    02:00 -9°C° 0 mm 2 mps 764 mmHg 92%
    03:00 -8°C° 0 mm 2 mps 764 mmHg 92%
    04:00 -8°C° 0 mm 2 mps 764 mmHg 91%
    05:00 -9°C° 0 mm 2 mps 764 mmHg 91%
    06:00 -9°C° 0 mm 2 mps 763 mmHg 91%
    07:00 -9°C° 0 mm 2 mps 763 mmHg 91%
    08:00 -10°C° 0 mm 2 mps 763 mmHg 90%
    09:00 -10°C° 0 mm 2 mps 763 mmHg 90%
    10:00 -10°C° 0 mm 2 mps 763 mmHg 90%
    11:00 -10°C° 0 mm 2 mps 763 mmHg 88%
    12:00 -9°C° 0 mm 2 mps 763 mmHg 86%
    13:00 -9°C° 0 mm 2 mps 763 mmHg 84%
    14:00 -10°C° 0 mm 2 mps 763 mmHg 85%
    15:00 -12°C° 0 mm 2 mps 763 mmHg 87%
    16:00 -12°C° 0 mm 2 mps 763 mmHg 88%
    17:00 -13°C° 0 mm 2 mps 763 mmHg 87%
    18:00 -13°C° 0 mm 2 mps 763 mmHg 87%
    19:00 -13°C° 0 mm 2 mps 763 mmHg 86%
    20:00 -14°C° 0 mm 2 mps 764 mmHg 86%
    21:00 -14°C° 0 mm 2 mps 764 mmHg 86%
    22:00 -14°C° 0 mm 2 mps 764 mmHg 86%
    23:00 -14°C° 0 mm 2 mps 764 mmHg 86%

    19 December, Wednesday

    Time Temperature Precipitation Wind Pressure Humidity
    00:00 -15°C° 0 mm 2 mps 764 mmHg 87%
    01:00 -15°C° 0 mm 2 mps 764 mmHg 87%
    02:00 -15°C° 0 mm 2 mps 764 mmHg 88%
    03:00 -15°C° 0 mm 2 mps 764 mmHg 88%
    04:00 -16°C° 0 mm 2 mps 764 mmHg 89%
    05:00 -16°C° 0 mm 2 mps 765 mmHg 90%
    06:00 -15°C° 0 mm 2 mps 765 mmHg 90%
    07:00 -13°C° 0 mm 1 mps 765 mmHg 91%
    08:00 -13°C° 0 mm 1 mps 766 mmHg 91%
    09:00 -13°C° 0 mm 1 mps 766 mmHg 91%
    10:00 -13°C° 0 mm 1 mps 766 mmHg 92%
    11:00 -12°C° 0 mm 1 mps 767 mmHg 91%
    12:00 -12°C° 0 mm 1 mps 767 mmHg 90%
    13:00 -11°C° 0 mm 1 mps 767 mmHg 90%
    14:00 -12°C° 0 mm 1 mps 767 mmHg 92%
    15:00 -12°C° 0 mm 1 mps 768 mmHg 94%
    16:00 -12°C° 0 mm 1 mps 768 mmHg 96%
    17:00 -12°C° 0.1 mm 1 mps 768 mmHg 96%
    18:00 -12°C° 0.1 mm 1 mps 768 mmHg 96%
    19:00 -12°C° 0.1 mm 1 mps 769 mmHg 96%
    20:00 -12°C° 0.1 mm 1 mps 769 mmHg 96%
    21:00 -12°C° 0.1 mm 1 mps 769 mmHg 96%
    22:00 -12°C° 0.1 mm 1 mps 769 mmHg 96%
    23:00 -12°C° 0.1 mm 1 mps 769 mmHg 95%
    Show more